カタログに戻る

ARIANE 42P+ DEB

LostHEO
NORAD 26741·DEBRIS·🇫🇷 France

打ち上げ Oct 28, 1992 から Guiana Space Centre

Loading…

次のパス (今後24時間)

TLE

古いSource: Space-Track

元期: Mar 22, 2025, 09:27 UTC

1 26741U 92072J   25081.39406087 -.00002844  00000-0 -81433-1 0  9993
2 26741   7.2758 196.8511 6517750  17.7842   4.7919  2.92900115272169

AllMySatでARIANE 42P+ DEBをリアルタイム追跡

Download on the App Store